Regional Weather Roundup
Issued by NWS Mt. Holly, NJ

Home | Current Version | Previous Version | Text Only | Print | Product List | Glossary On
Versions: 1 2 3 4 5 6 7 8 9 10 11 12 13 14 15 16 17 18 19 20 21 22 23 24 25 26 27 28 29 30 31 32 33 34 35 36 37 38 39 40 41 42 43 44 45 46 47 48 49 50
000
ASUS41 KPHI 302011
RWRPHI

REGIONAL WEATHER ROUNDUP
NATIONAL WEATHER SERVICE MOUNT HOLLY NJ
400 PM EDT SUN AUG 30 2015

NOTE:  "FAIR" INDICATES FEW OR NO CLOUDS BELOW 12,000 FEET WITH NO
SIGNIFICANT WEATHER AND/OR OBSTRUCTIONS TO VISIBILITY.

 * = STATION DOES NOT REPORT PRECIPITATION (E.G. RAIN, SNOW, ETC.)
        OR FOG.

NJZ015>026-302100-
SOUTHERN NEW JERSEY

CITY           SKY/WX    TMP DP  RH WIND       PRES   REMARKS
POMONA         PTSUNNY   86  63  45 S13       30.06F
WILDWOOD*      PTSUNNY   84  66  54 S9        30.09F
MILLVILLE      MOSUNNY   84  64  50 SW5       30.07F
WRIGHTSTOWN    PTSUNNY   89  64  43 SW9       30.01F HX  91
MOUNT HOLLY    MOSUNNY   90  64  42 VRB5      30.03F HX  91
TRENTON        PTSUNNY   88  64  44 SW8       30.03F

$$
NJZ001>014-302100-
NORTHERN NEW JERSEY

CITY           SKY/WX    TMP DP  RH WIND       PRES   REMARKS
SUSSEX         CLOUDY    76  71  85 CALM      30.04F
ANDOVER*         N/A     85  67  54 VRB6      30.05F
MORRISTOWN     PTSUNNY   90  63  40 W9G20     30.03F HX  90
NEWARK         PTSUNNY   86  67  52 E6        30.02F
TETERBORO      PTSUNNY   87  64  46 S10       30.01F
CALDWELL       PTSUNNY   88  62  41 SW8       30.02F
SOMERVILLE     PTSUNNY   89  64  43 VRB6      30.01F HX  90
ALLAIRE*       PTSUNNY   90  64  43 W9        30.04F HX  91
TOMS RIVER*    PTSUNNY   90  63  40 S13G20    30.04F HX  90

$$
PAZ043-044-047-054-055-060>062-066>071-302100-
EASTERN PENNSYLVANIA

CITY           SKY/WX    TMP DP  RH WIND       PRES   REMARKS
PHILADELPHIA   PTSUNNY   90  64  42 SW14      30.05F HX  91
NORTH PHILA    MOSUNNY   90  60  36 SW13      30.05F
BLUE BELL      PTSUNNY   88  68  51 W5        30.04F HX  91
DOYLESTOWN     PTSUNNY   85  63  47 SW8       30.04F
QUAKERTOWN*    CLOUDY    86  66  51 SW9       30.06F
POTTSTOWN      PTSUNNY   87  66  49 S7        30.06F
LANCASTER      PTSUNNY   86  66  51 W7        30.05F
COATESVILLE    MOSUNNY   84  68  58 S3        30.08F
READING        CLOUDY    86  63  45 W10       30.04F
ALLENTOWN      PTSUNNY   87  63  44 SW9       30.04F
MOUNT POCONO   PTSUNNY   81  63  54 W8        30.11F
HAZLETON       PTSUNNY   79  63  57 SW3       30.13S
WILKES BARRE   PTSUNNY   88  61  40 W13       30.04F

$$
DEZALL-MDZ008-012-015-019-020-302100-
DELAWARE AND EASTERN MARYLAND

CITY           SKY/WX    TMP DP  RH WIND       PRES   REMARKS
WILMINGTON     MOSUNNY   87  65  47 SW10      30.06F
DOVER          MOSUNNY   88  67  49 SW10      30.05F HX  91
GEORGETOWN     MOSUNNY   87  63  44 SW10      30.09F
EASTON         PTSUNNY   86  64  48 SW9       30.11F
PATUXENT       PTSUNNY   86  67  52 S9        30.08F
OCEAN CITY     MOSUNNY   84  65  52 SW9       30.10F
WALLOPS ISLAND MOSUNNY   84  64  50 S10       30.11F
CAMBRIDGE      SUNNY     86  63  45 SW6       30.08F
SALISBURY      MOSUNNY   86  62  44 SW7       30.08F

$$
PAZ001-021-NYZ056-072-MDZ011-DCZ001-302100-
OTHER NEARBY LOCATIONS

CITY           SKY/WX    TMP DP  RH WIND       PRES   REMARKS
HARRISBURG     CLOUDY    86  69  56 CALM      30.04F HX  90
STATE COLLEGE  MOSUNNY   82  64  54 W7        30.08F
WILLIAMSPORT   MOSUNNY   85  64  49 VRB3      30.02F
BINGHAMTON     MOSUNNY   78  63  59 W7        30.08F
NEW YORK CITY  PTSUNNY   86  65  49 VRB6      30.05F
BALTIMORE      PTSUNNY   85  67  54 S7        30.06F
WASHINGTON DC  PTSUNNY   86  65  49 S7        30.07F

$$


USA.gov is the U.S. government's official web portal to all federal, state and local government web resources and services.